Terminal Aerodrome Forecast
Issued by NWS Charleston, WV

Current Version | Previous Version | Graphics & Text | Print | Product List | Glossary On
Versions: 1 2 3 4 5 6 7 8 9 10 11 12 13 14 15 16 17
000
FTUS41 KRLX 182300
TAFHTS
TAF
KHTS 182332Z 1900/1924 VRB03KT P6SM SCT250
     FM191300 03004KT P6SM SKC=

USA.gov is the U.S. government's official web portal to all federal, state and local government web resources and services.